Regional Weather Roundup
Issued by NWS

Home | Current Version | Previous Version | Graphics & Text | Print | Product List | Glossary On
Versions: 1 2 3 4 5 6 7 8 9 10 11 12 13 14 15 16 17 18 19 20 21 22 23 24 25 26 27 28 29 30 31 32 33 34 35 36 37 38 39 40 41 42 43 44 45 46 47 48 49 50
000
ASUS43 KTOP 270108
RWRKS

WEATHER ROUNDUP FOR KANSAS
NATIONAL WEATHER SERVICE GOODLAND KS
800 PM CDT THU MAR 26 2015

NOTE:  "FAIR" INDICATES FEW OR NO CLOUDS BELOW 12,000 FEET WITH NO
SIGNIFICANT WEATHER AND/OR OBSTRUCTIONS TO VISIBILITY.

KSZ001>006-013>018-027>032-041>047-270200-
NORTHWEST KANSAS

CITY           SKY/WX    TMP DP  RH WIND       PRES   REMARKS
GOODLAND       CLOUDY    52  30  43 N12       30.12R
HAYS           MOCLDY    57  25  28 NW16      30.03R
HILL CITY      MOCLDY    56  26  31 N14       30.05R
RUSSELL        MOCLDY    57  27  31 N18       30.00R
$$

KSZ061>065-074>080-084>089-270200-
SOUTHWEST KANSAS

CITY           SKY/WX    TMP DP  RH WIND       PRES   REMARKS
DODGE CITY     CLOUDY    59  25  27 NW12      30.06R
ELKHART          N/A     58  25  28 NW5         N/A
GARDEN CITY    CLOUDY    56  27  32 N13       30.08R
GREAT BEND     CLOUDY    59  27  29 NW20      30.01R
LIBERAL        PTCLDY    57  25  28 NW9       30.11R
PRATT          CLOUDY    59  30  33 NW12      30.03R
$$

KSZ066>073-081>083-090>101-270200-
SOUTHEAST KANSAS

CITY           SKY/WX    TMP DP  RH WIND       PRES   REMARKS
CHANUTE        PTCLDY    48  29  47 SE6       30.06F
COFFEYVILLE    CLEAR     51  31  46 SE3       30.08F
HUTCHINSON     CLOUDY    55  37  50 S8        30.00S
MEDICINE LODGE   N/A     59  32  36 S8        30.01F
NEWTON         MOCLDY    50  30  46 S9        30.01F
PARSONS        PTCLDY    49  30  48 CALM      30.08F
WICHITA INTL   MOCLDY    53  33  46 S12       30.01F
WICHITA JABRA  MOCLDY    52  32  46 S8        30.01F
WICHITA MCCONL MOCLDY    53  32  44 S9        30.02F
WINFIELD       MOCLDY    49  35  58 S7        30.07F
$$

KSZ007>012-019>026-033>040-048>060-102>105-270200-
NORTHEAST KANSAS

CITY           SKY/WX    TMP DP  RH WIND       PRES   REMARKS
CONCORDIA      CLOUDY    49  38  65 NE8       30.02R
EMPORIA        CLOUDY    49  32  52 SW3       30.04S
LAWRENCE       CLOUDY    47  32  56 NE5       30.07R
MANHATTAN      CLOUDY    50  33  52 NE7       30.05R
MARYSVILLE     CLOUDY    41  34  75 NE14      30.09R
OLATHE IND     CLOUDY    45  29  53 N3        30.08R
OLATHE EXE     CLOUDY    48  26  42 NW3       30.06S
SALINA         LGT RAIN  54  37  52 E10       30.00R
TOPEKA BILLARD CLOUDY    50  30  46 NE7       30.07S
TOPEKA FORBES  CLOUDY    50  31  48 NE3       30.06R
$$



USA.gov is the U.S. government's official web portal to all federal, state and local government web resources and services.